SCP
0 0 0 0 0 0 0 0 0 0 0 0 0 0 0 0 -0 -0 0 -0 0 0 0 0 0 0 0 0 0 0 -0 -0 -0 -0 -0 0 -0 -0 -0 0 0 0 0 -0 -0
0 0 0 0 0 0 0 0 0 0 0 0 0 0 0 0 -0 0 -0 -0 0 0 0 0 0 0 0 0 0 0 -0 -0 -0 -0 -0 -0 -0 -0 -0 0 0 0 -0 0 -0
0 0 0 0 0 0 0 0 0 0 0 0 0 0 0 0 0 0 0 -0 0 0 0 0 0 0 0 0 0 0 -0 0 0 0 -0 -0 0 0 0 0 0 -0 0 -0 0
0 0 0 0 0 0 0 0 0 0 0 0 0 0 0 0 0 0 0 0 0 0 0 0 0 0 0 0 0 0 0 0 0 0 0 -0 -0 0 0 0 -0 -0 0 -0 -0
0 0 0 0 0 0 0 0 0 0 0 0 0 0 0 0 0 0 0 0 0 0 0 0 0 0 0 0 0 0 0 0 0 0 0 0 -0 0 0 0 0 0 0 0 -0
0 0 0 0 0 0 0 0 0 0 0 0 0 0 0 0 0 0 0 0 0 0 0 -0 -0 0 0 0 0 0 0 0 0 0 0 0 0 0 0 0 0 0 -0 -0 -0
-0 0 0 0 0 0 0 0 0 0 0 0 0 0 0 0 0 0 0 0 0 0 0 0 0 0 0 0 0 0 0 0 0 -0 0 0 0 0 -0 -0 -0 -0 0 -0 -0
-0 0 0 0 0 0 0 0 0 0 0 0 0 0 0 0 0 -0 -0 0 0 0 0 0 0 0 0 0 0 0 0 0 0 0 0 0 0 0 0 -0 -0 -0 0 0 0
-0 -0 0 0 0 0 0 0 0 0 0 0 0 0 0 0 0 -0 0 -0 0 0 0 0 0 -0 0 0 0 -0 0 -0 -0 -0 -0 -0 0 -0 0 0 -0 -0 0 0 0
-0 -0 -0 0 0 0 0 0 0 0 0 0 0 0 0 0 0 0 -0 -0 0 0 0 0 0 0 0 0 -0 0 0 0 0 0 0 -0 -0 -0 0 0 0 0 0 0 0
-0 -0 -0 0 0 0 0 0 0 0 0 0 0 0 0 -0 0 -0 -0 0 0 0 0 0 0 0 -0 -0 0 0 0 0 0 0 -0 0 -0 -0 -0 -0 -0 0 -0 -0 0
-0 -0 0 0 0 0 0 0 0 0 0 -0 0 0 0 0 0 -0 0 0 0 -0 0 0 0 0 0 0 0 0 0 0 0 0 0 -0 -0 -0 -0 0 0 0 0 0 0
0 0 0 0 0 0 0 0 0 0 0 0 0 0 -0 0 0 0 0 0 0 0 0 0 0 0 0 0 0 0 0 0 -0 0 0 0 0 0 0 0 0 0 0 0 0
0 0 0 0 0 -0 0 0 0 0 0 0 0 0 -0 0 0 0 0 0 0 0 0 0 0 0 0 0 0 0 0 0 0 0 0 0 0 0 0 0 0 0 0 0 0
0 0 0 -0 0 0 0 0 -0 0 0 0 -0 -0 0 0 0 0 0 0 0 0 0 -0 0 0 0 0 0 0 0 0 0 0 0 0 0 0 0 0 0 0 0 0 0
0 0 0 0 0 0 0 0 0 0 0 0 0 0 0 0 0 0 0 0 0 0 0 0 0 0 0 0 0 0 0 0 0 0 0 0 0 0 0 0 0 0 0 0 0
0 0 0 0 0 0 0 0 0 0 0 0 0 0 0 0 0 0 0 0 0 0 0 0 0 0 0 0 0 0 0 0 0 0 0 0 0 0 0 0 0 0 0 0 0
0 0 -0 -0 0 0 0 0 0 0 0 0 0 0 0 0 0 0 0 0 0 0 0 0 0 0 0 0 0 0 0 0 0 0 0 0 0 0 0 0 0 0 0 -0 0
0 0 0 0 0 0 0 0 0 0 0 0 0 0 0 0 0 0 0 0 0 0 0 0 0 0 0 0 0 0 0 0 0 0 0 0 0 0 0 0 0 0 0 0 0
0 0 0 0 0 0 0 0 0 0 0 0 0 0 0 0 0 0 0 0 0 0 0 0 0 0 0 0 0 0 0 0 0 0 0 0 0 0 0 0 0 0 -0 -0 -0
0 0 0 0 0 0 0 0 0 0 0 0 0 0 0 0 0 0 0 0 0 0 0 0 0 0 0 0 0 0 0 0 0 0 0 0 0 0 0 0 0 0 -0 -0 -0
0 0 0 0 0 0 0 0 0 0 0 0 0 0 0 0 0 0 0 0 0 0 0 0 0 0 0 0 0 0 0 0 0 0 0 0 0 0 0 -0 -0 -0 -0 -0 -0
0 0 0 0 0 0 0 0 0 0 0 0 0 0 0 0 0 0 0 0 0 0 0 0 0 0 0 0 0 0 0 0 0 0 0 0 0 0 0 -0 -0 -0 -0 -0 -0
0 0 0 0 0 0 0 0 0 0 0 0 0 0 0 0 0 0 0 0 0 0 0 0 0 0 0 0 0 0 0 0 0 0 0 0 0 0 0 -0 -0 -0 -0 -0 -0
0 0 0 0 0 0 0 0 0 0 0 0 0 0 0 0 0 0 0 0 0 0 0 0 0 0 0 0 0 0 0 0 0 0 0 0 0 0 0 -0 -0 -0 -0 0 0
0 0 0 0 0 0 0 0 0 0 0 0 0 0 0 0 0 0 0 0 0 0 0 0 0 0 0 0 0 0 0 0 0 0 0 0 0 0 -0 -0 0 0 0 0 0
0 0 0 0 0 0 0 0 0 0 0 0 0 0 0 0 0 0 0 0 0 0 0 0 0 0 0 0 0 0 0 0 0 0 -0 -0 -0 -0 0 0 0 0 0 0 0
Wind_Speed_500mb
18 18 18 17 16 18 19 20 18 18 18 18 19 20 21 24 27 34 43 28 20 9 16 18 21 14 14 16 27 16 3 3 6 3 8 40 19 40 15 9 10 20 16 40 58
18 18 19 17 15 16 17 18 18 17 16 16 16 18 20 24 29 39 26 22 22 20 13 16 18 12 9 10 9 11 6 9 14 10 3 39 38 38 9 12 17 43 40 64 58
19 19 18 17 15 15 16 16 16 15 15 14 14 15 18 19 26 6 9 3 23 17 18 19 20 14 7 11 17 9 12 13 36 48 22 38 21 36 27 4 37 62 67 75 67
19 19 18 17 15 14 14 15 14 14 14 12 12 13 15 11 6 2 12 0 13 14 16 16 11 6 4 4 12 8 30 36 50 62 21 29 46 21 27 35 74 53 57 74 78
20 19 18 16 14 13 12 12 12 13 12 10 11 12 11 11 20 6 6 3 6 7 13 16 15 9 7 8 11 11 15 40 55 59 38 12 45 31 51 65 63 51 62 76 76
20 19 18 16 14 11 10 11 12 10 11 9 10 11 11 10 5 7 10 7 7 10 13 25 15 4 17 12 7 21 28 38 42 42 30 14 8 23 53 74 72 54 71 79 72
19 17 16 15 12 9 9 10 10 10 10 8 9 12 20 29 7 8 6 2 4 6 11 14 18 24 19 13 10 15 11 18 11 12 10 11 2 8 66 79 70 65 67 72 76
18 15 14 12 8 6 7 7 7 8 7 8 9 12 18 9 15 24 8 10 11 15 19 18 18 11 7 14 18 12 5 8 13 8 15 13 15 18 28 74 63 76 66 70 80
17 13 12 9 3 6 7 8 8 8 7 7 7 9 18 15 25 21 25 23 15 12 20 16 18 6 9 8 11 13 5 10 20 7 6 6 18 17 37 58 57 63 66 72 74
15 10 8 3 6 10 10 9 7 6 7 7 13 14 11 6 11 15 28 28 21 23 15 15 4 5 8 9 10 11 3 9 11 19 8 20 26 10 18 29 30 31 55 32 22
12 6 3 5 9 11 12 8 3 5 17 17 7 20 20 1 19 17 21 19 18 11 9 8 6 13 24 20 6 5 7 17 11 8 3 9 11 57 71 87 79 77 90 74 53
10 5 5 11 11 10 9 7 7 7 16 27 34 44 35 17 12 10 25 18 8 10 0 10 14 27 16 16 15 14 16 10 11 7 9 57 49 57 72 71 82 82 87 86 89
8 8 10 15 10 6 8 1 9 25 7 17 27 37 32 13 12 18 30 29 8 6 9 12 23 9 15 17 15 14 13 8 10 8 5 26 34 43 45 71 78 80 76 84 82
9 11 15 17 10 10 7 16 11 6 8 10 10 15 30 19 6 13 35 19 6 15 10 13 12 15 27 14 11 2 5 5 5 8 7 5 11 36 27 41 67 82 92 88 84
9 15 20 24 12 8 16 20 8 7 5 9 11 16 25 17 13 7 13 6 6 9 6 14 17 19 6 10 8 11 3 4 4 8 5 11 15 15 35 45 45 67 81 82 91
9 18 23 28 14 12 17 11 5 9 10 8 15 12 13 18 7 14 6 3 5 5 5 15 18 4 4 12 10 4 9 13 9 6 10 16 12 22 17 34 39 61 71 77 78
8 19 28 28 11 16 10 8 9 5 11 8 9 12 12 8 4 5 9 14 7 9 13 12 9 8 14 4 15 17 13 7 7 9 5 8 25 9 29 33 41 50 62 67 71
8 17 28 31 0 10 9 9 3 11 7 10 7 11 11 11 3 9 8 7 12 9 5 7 11 13 14 6 1 11 12 10 9 7 10 3 13 9 24 38 45 53 57 62 71
8 12 20 22 6 2 7 6 8 7 10 14 12 6 5 3 11 13 8 4 6 10 6 3 1 9 15 16 7 4 9 7 10 4 9 9 10 14 35 35 50 57 62 68 70
7 4 16 23 14 7 8 8 3 9 11 10 7 5 2 11 9 11 5 10 8 12 1 3 1 8 10 17 24 15 3 6 8 7 8 7 7 11 38 38 40 54 57 57 59
2 3 14 17 21 9 6 10 7 10 13 9 8 8 9 7 7 8 7 8 11 11 10 6 6 10 13 14 6 11 9 10 10 5 9 9 5 13 19 21 33 55 68 74 69
3 3 12 20 5 2 5 3 9 5 12 6 6 5 4 9 10 8 8 6 16 4 5 5 7 9 9 6 18 12 5 7 8 6 5 8 4 12 23 19 30 38 53 61 68
1 5 8 21 4 1 3 7 15 13 11 10 6 5 7 6 13 7 10 14 19 9 3 4 5 6 5 11 16 15 13 7 11 8 11 4 5 18 28 26 24 40 53 56 63
2 5 5 5 3 12 9 5 6 17 8 9 6 5 4 15 13 10 7 5 11 9 4 3 7 9 11 5 15 16 33 24 13 9 4 7 3 19 24 27 34 50 56 61 65
6 2 5 4 12 11 7 7 7 4 10 13 12 12 7 8 7 8 7 8 9 9 6 8 8 14 34 42 47 36 36 36 30 10 10 10 11 27 29 36 48 62 73 79 74
8 10 9 14 12 21 16 13 9 8 15 7 13 20 27 8 8 11 13 5 3 14 6 7 2 22 26 41 47 37 30 29 27 19 14 8 4 23 29 34 35 51 50 51 59
15 12 13 34 12 10 11 7 10 7 21 21 20 19 30 12 43 45 45 40 16 8 6 6 7 8 9 17 13 22 16 23 21 15 5 7 7 22 19 33 29 54 60 57 62
Wind_Direction_500mb
325 324 319 308 290 275 262 258 260 263 267 267 268 272 276 277 277 277 270 269 247 235 237 277 263 276 249 253 256 269 289 295 257 0 346 145 167 220 186 121 123 219 255 202 161
326 324 322 315 298 283 269 258 256 258 261 263 270 273 278 283 290 282 307 256 247 213 242 291 286 288 308 243 222 144 211 244 206 216 130 176 187 187 192 162 113 117 141 157 172
328 324 322 317 304 290 277 262 255 258 262 263 267 271 277 295 304 296 25 309 209 221 255 273 276 294 279 279 237 216 224 233 279 284 156 185 208 181 138 23 154 134 152 163 177
328 323 321 317 306 292 277 267 256 257 260 261 262 264 277 290 260 35 346 111 192 232 251 252 237 203 252 251 251 233 263 257 270 281 287 181 191 205 190 181 157 161 176 173 179
328 322 318 313 303 286 270 266 252 247 252 251 252 260 276 262 259 332 358 47 150 221 235 213 214 197 213 230 342 191 265 278 275 281 285 237 196 181 210 180 178 171 178 174 183
327 323 320 314 305 283 258 254 248 242 241 240 247 256 254 264 208 156 353 253 251 237 221 192 198 266 283 273 161 272 295 290 290 290 278 199 215 153 181 172 179 176 184 185 187
325 321 319 312 302 271 243 237 240 224 228 233 247 261 262 240 97 190 309 250 219 84 180 209 288 262 265 309 312 292 318 332 280 278 286 168 0 257 176 182 187 193 195 199 194
326 322 318 312 293 243 220 223 210 205 214 228 244 262 256 133 214 221 207 215 260 277 277 300 301 293 209 302 341 1 31 340 286 334 294 93 269 268 187 183 198 210 219 204 200
326 322 319 312 237 184 178 173 176 189 204 223 232 261 265 214 227 229 213 225 240 228 261 283 306 337 343 64 7 3 260 313 326 323 309 124 263 261 176 186 198 214 219 221 213
323 320 319 285 175 157 152 157 171 195 209 225 238 296 260 224 221 237 210 221 254 221 249 263 317 27 23 82 215 229 295 317 269 289 182 245 251 287 107 48 22 14 251 256 284
319 299 288 179 158 151 153 142 129 255 231 225 257 242 310 175 165 187 182 216 243 198 188 250 89 226 226 213 122 224 239 249 242 227 203 312 43 46 50 59 59 49 45 51 35
305 261 203 169 170 179 191 256 315 326 292 278 266 261 271 269 282 199 189 212 202 234 140 1 243 236 216 249 231 219 254 270 275 289 100 72 61 51 44 49 53 48 47 44 40
283 225 192 175 180 198 227 71 13 342 305 281 243 241 239 232 235 236 198 202 192 241 231 187 249 270 207 241 229 200 199 235 218 337 57 117 65 45 45 50 49 51 50 44 40
264 210 188 176 184 197 199 339 40 328 44 270 187 244 235 221 315 221 195 197 215 235 253 227 290 267 252 201 185 114 331 49 61 71 167 50 164 45 43 50 42 38 35 31 24
247 205 188 175 167 177 359 355 358 188 354 206 188 173 171 158 154 106 163 191 250 268 47 263 303 314 342 152 140 177 100 58 99 103 98 40 74 332 37 36 34 30 29 26 26
230 199 191 197 213 0 5 1 336 54 253 191 158 166 137 201 180 142 112 131 37 341 274 247 274 359 213 42 54 91 54 47 54 81 52 298 108 25 24 20 28 28 27 23 23
208 196 197 197 145 15 3 339 50 143 290 152 178 149 151 140 95 124 65 36 50 26 8 332 356 343 31 36 4 64 56 5 15 33 151 164 67 47 34 20 26 28 23 19 18
182 192 202 203 221 9 356 53 162 290 333 341 58 138 149 139 118 61 104 68 20 46 67 19 359 352 330 73 130 57 119 144 161 135 169 13 119 72 40 24 26 23 18 19 16
161 189 208 189 146 4 356 78 218 326 333 352 335 31 97 85 124 85 64 82 50 44 99 47 267 319 50 55 34 355 61 176 107 33 83 109 99 208 17 19 15 11 13 10 8
165 206 178 157 173 205 83 233 195 13 349 356 14 2 280 201 140 97 94 344 352 27 353 256 155 0 355 16 24 85 3 78 10 148 149 71 75 345 354 355 360 2 4 6 3
171 300 169 165 176 176 156 227 125 35 42 48 9 335 319 353 71 68 46 25 5 338 43 30 89 303 36 10 320 6 25 39 107 80 186 148 98 35 354 10 356 353 353 352 358
136 39 152 185 161 106 174 207 98 117 27 29 97 27 349 24 60 81 110 61 356 336 55 342 125 66 91 81 71 76 66 90 117 242 49 98 116 40 12 30 5 352 349 349 352
359 282 200 206 152 259 45 75 56 19 20 8 40 20 26 90 101 82 88 43 38 60 87 337 13 88 9 345 24 58 1 23 87 57 14 63 154 35 13 16 8 356 352 354 353
50 35 57 133 329 131 119 93 105 25 47 12 329 345 42 31 33 117 120 55 56 80 75 92 64 145 165 97 98 75 48 40 86 75 101 62 277 357 359 3 6 1 360 359 357
48 11 31 354 3 79 70 115 121 75 3 15 353 7 146 130 68 99 83 121 44 40 69 93 84 81 96 91 88 84 71 59 66 39 77 358 31 3 358 5 3 357 356 355 354
64 33 30 31 18 54 19 14 100 65 17 2 87 54 67 85 174 170 135 97 128 22 60 19 161 101 80 92 84 84 73 79 74 73 66 70 83 347 352 355 355 357 348 346 345
49 52 89 14 15 66 346 29 18 101 40 40 122 80 72 56 97 100 97 86 90 103 31 71 112 111 157 148 96 47 63 89 89 44 121 82 272 325 344 349 343 353 0 350 345
Wind_Speed_850mb
18 18 18 17 16 18 19 20 18 18 18 18 19 20 21 24 27 34 43 28 20 9 16 18 21 14 14 16 27 16 3 3 6 3 8 40 19 40 15 9 10 20 16 40 58
18 18 19 17 15 16 17 18 18 17 16 16 16 18 20 24 29 39 26 22 22 20 13 16 18 12 9 10 9 11 6 9 14 10 3 39 38 38 9 12 17 43 40 64 58
19 19 18 17 15 15 16 16 16 15 15 14 14 15 18 19 26 6 9 3 23 17 18 19 20 14 7 11 17 9 12 13 36 48 22 38 21 36 27 4 37 62 67 75 67
19 19 18 17 15 14 14 15 14 14 14 12 12 13 15 11 6 2 12 0 13 14 16 16 11 6 4 4 12 8 30 36 50 62 21 29 46 21 27 35 74 53 57 74 78
20 19 18 16 14 13 12 12 12 13 12 10 11 12 11 11 20 6 6 3 6 7 13 16 15 9 7 8 11 11 15 40 55 59 38 12 45 31 51 65 63 51 62 76 76
20 19 18 16 14 11 10 11 12 10 11 9 10 11 11 10 5 7 10 7 7 10 13 25 15 4 17 12 7 21 28 38 42 42 30 14 8 23 53 74 72 54 71 79 72
19 17 16 15 12 9 9 10 10 10 10 8 9 12 20 29 7 8 6 2 4 6 11 14 18 24 19 13 10 15 11 18 11 12 10 11 2 8 66 79 70 65 67 72 76
18 15 14 12 8 6 7 7 7 8 7 8 9 12 18 9 15 24 8 10 11 15 19 18 18 11 7 14 18 12 5 8 13 8 15 13 15 18 28 74 63 76 66 70 80
17 13 12 9 3 6 7 8 8 8 7 7 7 9 18 15 25 21 25 23 15 12 20 16 18 6 9 8 11 13 5 10 20 7 6 6 18 17 37 58 57 63 66 72 74
15 10 8 3 6 10 10 9 7 6 7 7 13 14 11 6 11 15 28 28 21 23 15 15 4 5 8 9 10 11 3 9 11 19 8 20 26 10 18 29 30 31 55 32 22
12 6 3 5 9 11 12 8 3 5 17 17 7 20 20 1 19 17 21 19 18 11 9 8 6 13 24 20 6 5 7 17 11 8 3 9 11 57 71 87 79 77 90 74 53
10 5 5 11 11 10 9 7 7 7 16 27 34 44 35 17 12 10 25 18 8 10 0 10 14 27 16 16 15 14 16 10 11 7 9 57 49 57 72 71 82 82 87 86 89
8 8 10 15 10 6 8 1 9 25 7 17 27 37 32 13 12 18 30 29 8 6 9 12 23 9 15 17 15 14 13 8 10 8 5 26 34 43 45 71 78 80 76 84 82
9 11 15 17 10 10 7 16 11 6 8 10 10 15 30 19 6 13 35 19 6 15 10 13 12 15 27 14 11 2 5 5 5 8 7 5 11 36 27 41 67 82 92 88 84
9 15 20 24 12 8 16 20 8 7 5 9 11 16 25 17 13 7 13 6 6 9 6 14 17 19 6 10 8 11 3 4 4 8 5 11 15 15 35 45 45 67 81 82 91
9 18 23 28 14 12 17 11 5 9 10 8 15 12 13 18 7 14 6 3 5 5 5 15 18 4 4 12 10 4 9 13 9 6 10 16 12 22 17 34 39 61 71 77 78
8 19 28 28 11 16 10 8 9 5 11 8 9 12 12 8 4 5 9 14 7 9 13 12 9 8 14 4 15 17 13 7 7 9 5 8 25 9 29 33 41 50 62 67 71
8 17 28 31 0 10 9 9 3 11 7 10 7 11 11 11 3 9 8 7 12 9 5 7 11 13 14 6 1 11 12 10 9 7 10 3 13 9 24 38 45 53 57 62 71
8 12 20 22 6 2 7 6 8 7 10 14 12 6 5 3 11 13 8 4 6 10 6 3 1 9 15 16 7 4 9 7 10 4 9 9 10 14 35 35 50 57 62 68 70
7 4 16 23 14 7 8 8 3 9 11 10 7 5 2 11 9 11 5 10 8 12 1 3 1 8 10 17 24 15 3 6 8 7 8 7 7 11 38 38 40 54 57 57 59
2 3 14 17 21 9 6 10 7 10 13 9 8 8 9 7 7 8 7 8 11 11 10 6 6 10 13 14 6 11 9 10 10 5 9 9 5 13 19 21 33 55 68 74 69
3 3 12 20 5 2 5 3 9 5 12 6 6 5 4 9 10 8 8 6 16 4 5 5 7 9 9 6 18 12 5 7 8 6 5 8 4 12 23 19 30 38 53 61 68
1 5 8 21 4 1 3 7 15 13 11 10 6 5 7 6 13 7 10 14 19 9 3 4 5 6 5 11 16 15 13 7 11 8 11 4 5 18 28 26 24 40 53 56 63
2 5 5 5 3 12 9 5 6 17 8 9 6 5 4 15 13 10 7 5 11 9 4 3 7 9 11 5 15 16 33 24 13 9 4 7 3 19 24 27 34 50 56 61 65
6 2 5 4 12 11 7 7 7 4 10 13 12 12 7 8 7 8 7 8 9 9 6 8 8 14 34 42 47 36 36 36 30 10 10 10 11 27 29 36 48 62 73 79 74
8 10 9 14 12 21 16 13 9 8 15 7 13 20 27 8 8 11 13 5 3 14 6 7 2 22 26 41 47 37 30 29 27 19 14 8 4 23 29 34 35 51 50 51 59
15 12 13 34 12 10 11 7 10 7 21 21 20 19 30 12 43 45 45 40 16 8 6 6 7 8 9 17 13 22 16 23 21 15 5 7 7 22 19 33 29 54 60 57 62
Wind_Direction_850mb
325 324 319 308 290 275 262 258 260 263 267 267 268 272 276 277 277 277 270 269 247 235 237 277 263 276 249 253 256 269 289 295 257 0 346 145 167 220 186 121 123 219 255 202 161
326 324 322 315 298 283 269 258 256 258 261 263 270 273 278 283 290 282 307 256 247 213 242 291 286 288 308 243 222 144 211 244 206 216 130 176 187 187 192 162 113 117 141 157 172
328 324 322 317 304 290 277 262 255 258 262 263 267 271 277 295 304 296 25 309 209 221 255 273 276 294 279 279 237 216 224 233 279 284 156 185 208 181 138 23 154 134 152 163 177
328 323 321 317 306 292 277 267 256 257 260 261 262 264 277 290 260 35 346 111 192 232 251 252 237 203 252 251 251 233 263 257 270 281 287 181 191 205 190 181 157 161 176 173 179
328 322 318 313 303 286 270 266 252 247 252 251 252 260 276 262 259 332 358 47 150 221 235 213 214 197 213 230 342 191 265 278 275 281 285 237 196 181 210 180 178 171 178 174 183
327 323 320 314 305 283 258 254 248 242 241 240 247 256 254 264 208 156 353 253 251 237 221 192 198 266 283 273 161 272 295 290 290 290 278 199 215 153 181 172 179 176 184 185 187
325 321 319 312 302 271 243 237 240 224 228 233 247 261 262 240 97 190 309 250 219 84 180 209 288 262 265 309 312 292 318 332 280 278 286 168 0 257 176 182 187 193 195 199 194
326 322 318 312 293 243 220 223 210 205 214 228 244 262 256 133 214 221 207 215 260 277 277 300 301 293 209 302 341 1 31 340 286 334 294 93 269 268 187 183 198 210 219 204 200
326 322 319 312 237 184 178 173 176 189 204 223 232 261 265 214 227 229 213 225 240 228 261 283 306 337 343 64 7 3 260 313 326 323 309 124 263 261 176 186 198 214 219 221 213
323 320 319 285 175 157 152 157 171 195 209 225 238 296 260 224 221 237 210 221 254 221 249 263 317 27 23 82 215 229 295 317 269 289 182 245 251 287 107 48 22 14 251 256 284
319 299 288 179 158 151 153 142 129 255 231 225 257 242 310 175 165 187 182 216 243 198 188 250 89 226 226 213 122 224 239 249 242 227 203 312 43 46 50 59 59 49 45 51 35
305 261 203 169 170 179 191 256 315 326 292 278 266 261 271 269 282 199 189 212 202 234 140 1 243 236 216 249 231 219 254 270 275 289 100 72 61 51 44 49 53 48 47 44 40
283 225 192 175 180 198 227 71 13 342 305 281 243 241 239 232 235 236 198 202 192 241 231 187 249 270 207 241 229 200 199 235 218 337 57 117 65 45 45 50 49 51 50 44 40
264 210 188 176 184 197 199 339 40 328 44 270 187 244 235 221 315 221 195 197 215 235 253 227 290 267 252 201 185 114 331 49 61 71 167 50 164 45 43 50 42 38 35 31 24
247 205 188 175 167 177 359 355 358 188 354 206 188 173 171 158 154 106 163 191 250 268 47 263 303 314 342 152 140 177 100 58 99 103 98 40 74 332 37 36 34 30 29 26 26
230 199 191 197 213 0 5 1 336 54 253 191 158 166 137 201 180 142 112 131 37 341 274 247 274 359 213 42 54 91 54 47 54 81 52 298 108 25 24 20 28 28 27 23 23
208 196 197 197 145 15 3 339 50 143 290 152 178 149 151 140 95 124 65 36 50 26 8 332 356 343 31 36 4 64 56 5 15 33 151 164 67 47 34 20 26 28 23 19 18
182 192 202 203 221 9 356 53 162 290 333 341 58 138 149 139 118 61 104 68 20 46 67 19 359 352 330 73 130 57 119 144 161 135 169 13 119 72 40 24 26 23 18 19 16
161 189 208 189 146 4 356 78 218 326 333 352 335 31 97 85 124 85 64 82 50 44 99 47 267 319 50 55 34 355 61 176 107 33 83 109 99 208 17 19 15 11 13 10 8
165 206 178 157 173 205 83 233 195 13 349 356 14 2 280 201 140 97 94 344 352 27 353 256 155 0 355 16 24 85 3 78 10 148 149 71 75 345 354 355 360 2 4 6 3
171 300 169 165 176 176 156 227 125 35 42 48 9 335 319 353 71 68 46 25 5 338 43 30 89 303 36 10 320 6 25 39 107 80 186 148 98 35 354 10 356 353 353 352 358
136 39 152 185 161 106 174 207 98 117 27 29 97 27 349 24 60 81 110 61 356 336 55 342 125 66 91 81 71 76 66 90 117 242 49 98 116 40 12 30 5 352 349 349 352
359 282 200 206 152 259 45 75 56 19 20 8 40 20 26 90 101 82 88 43 38 60 87 337 13 88 9 345 24 58 1 23 87 57 14 63 154 35 13 16 8 356 352 354 353
50 35 57 133 329 131 119 93 105 25 47 12 329 345 42 31 33 117 120 55 56 80 75 92 64 145 165 97 98 75 48 40 86 75 101 62 277 357 359 3 6 1 360 359 357
48 11 31 354 3 79 70 115 121 75 3 15 353 7 146 130 68 99 83 121 44 40 69 93 84 81 96 91 88 84 71 59 66 39 77 358 31 3 358 5 3 357 356 355 354
64 33 30 31 18 54 19 14 100 65 17 2 87 54 67 85 174 170 135 97 128 22 60 19 161 101 80 92 84 84 73 79 74 73 66 70 83 347 352 355 355 357 348 346 345
49 52 89 14 15 66 346 29 18 101 40 40 122 80 72 56 97 100 97 86 90 103 31 71 112 111 157 148 96 47 63 89 89 44 121 82 272 325 344 349 343 353 0 350 345